Weather History for Yuma MCAS, AZ

Change the Weather History Date:

Saturday, December 8, 2012

  Actual Average Record
Temperature  
Mean Temperature 64 °F 58 °F  
Max Temperature 77 °F 69 °F 84 °F (1962)
Min Temperature 50 °F 47 °F 31 °F (1978)
Degree Days  
Heating Degree Days 1 7  
Month to date heating degree days 1 50  
Since 1 July heating degree days 23 118  
Growing Degree Days 13 (Base 50)    
Moisture  
Dew Point 29 °F    
Average Humidity 31    
Maximum Humidity 48    
Minimum Humidity 14    
Precipitation  
Precipitation 0.00 in 0.02 in 0.41 in (1959)
Month to date precipitation 0.00 0.11  
Year to date precipitation 2.37 3.16  
Sea Level Pressure  
Sea Level Pressure 29.90 in    
Wind  
Wind Speed 1 mph (ENE)    
Max Wind Speed 9 mph    
Max Gust Speed 13 mph    
Visibility 10 miles    
Events      
T = Trace of Precipitation, MM = Missing Value Source: NWS Daily Summary

Daily Weather History Graph

Daily Weather History Graph

Search for Another Location

Airport:

Trip Planner

Search our weather history database for the weather conditions in past years. The results will help you decide how hot, cold, wet, or windy it might be!

Date:

Astronomy

Dec. 08, 2012 Rise Set
Actual Time 7:28 AM MST 5:32 PM MST
Civil Twilight 7:01 AM MST 5:59 PM MST
Nautical Twilight 6:30 AM MST 6:30 PM MST
Astronomical Twilight 6:00 AM MST 7:00 PM MST
Moon 2:11 AM MST (12/8) 1:53 PM MST (12/8)
Length of Visible Light 10h 58m
Length of Day
10h 03m
Waning Crescent, 27% of the Moon is Illuminated
Dec 8
Waning Crescent
Dec 13
New
Dec 19
First Quarter
Dec 28
Full
Jan 4
Last Quarter

Hourly Weather History & Observations

Time (MST) Temp. Dew Point Humidity Pressure Visibility Wind Dir Wind Speed Gust Speed Precip Events Conditions
12:55 AM 60.1 °F 30.0 °F 32% 29.90 in 10.0 mi NNE 3.5 mph - N/A   Clear
1:55 AM 60.1 °F 30.0 °F 32% 29.90 in 10.0 mi East 3.5 mph - N/A   Clear
2:55 AM 57.0 °F 30.9 °F 37% 29.90 in 10.0 mi Calm Calm - N/A   Clear
3:55 AM 55.0 °F 30.9 °F 40% 29.89 in 10.0 mi Calm Calm - N/A   Clear
4:55 AM 53.1 °F 32.0 °F 45% 29.89 in 10.0 mi Calm Calm - N/A   Clear
5:55 AM 52.0 °F 32.0 °F 47% 29.90 in 10.0 mi NE 3.5 mph - N/A   Clear
6:55 AM 51.1 °F 30.9 °F 46% 29.91 in 10.0 mi Calm Calm - N/A   Clear
7:55 AM 53.1 °F 32.0 °F 45% 29.92 in 10.0 mi Calm Calm - N/A   Clear
8:55 AM 57.9 °F 30.9 °F 36% 29.94 in 10.0 mi Calm Calm - N/A   Clear
9:55 AM 66.0 °F 25.0 °F 21% 29.95 in 10.0 mi ENE 5.8 mph - N/A   Partly Cloudy
10:55 AM 69.1 °F 27.0 °F 21% 29.95 in 10.0 mi NE 4.6 mph - N/A   Partly Cloudy
11:55 AM 72.0 °F 24.1 °F 17% 29.93 in 10.0 mi Calm Calm - N/A   Partly Cloudy
12:55 PM 75.0 °F 24.1 °F 15% 29.90 in 10.0 mi NNE 4.6 mph - N/A   Partly Cloudy
1:55 PM 75.0 °F 28.0 °F 18% 29.88 in 10.0 mi Calm Calm - N/A   Scattered Clouds
2:55 PM 75.9 °F 27.0 °F 16% 29.86 in 10.0 mi Calm Calm - N/A   Scattered Clouds
3:55 PM 75.9 °F 25.0 °F 15% 29.86 in 10.0 mi Calm Calm - N/A   Scattered Clouds
4:55 PM 73.9 °F 21.9 °F 14% 29.86 in 10.0 mi Calm Calm - N/A   Mostly Cloudy
5:55 PM 68.0 °F 33.1 °F 27% 29.86 in 10.0 mi South 3.5 mph - N/A   Scattered Clouds
6:55 PM 66.0 °F 30.0 °F 26% 29.87 in 10.0 mi Calm Calm - N/A   Scattered Clouds
7:55 PM 60.1 °F 35.1 °F 39% 29.88 in 10.0 mi Calm Calm - N/A   Scattered Clouds
8:55 PM 60.1 °F 34.0 °F 38% 29.89 in 10.0 mi Calm Calm - N/A   Scattered Clouds
9:55 PM 57.0 °F 30.9 °F 37% 29.90 in 10.0 mi Calm Calm - N/A   Scattered Clouds
10:55 PM 55.9 °F 32.0 °F 40% 29.92 in 10.0 mi Calm Calm - N/A   Scattered Clouds
11:55 PM 55.0 °F 30.0 °F 38% 29.91 in 10.0 mi Calm Calm - N/A   Scattered Clouds